Flag for Germany Weather past 2 weeks in Alsfeld, Hesse, Germany

Now
47 °F

Scattered clouds.


Feels Like: 43 °F
Forecast: 33 / 42 °F
Wind: 9 mph from West

Location: Fritzlar

Current Time: Mar 2, 2015 at 4:16:23 PM

Latest Report: Mar 2, 2015 at 3:00 PM


Visibility: 25 mi

Pressure: 29.70 "Hg

Humidity: 42%

Dew point: 25 °F

Location of AlsfeldLocation

Historic Weather in Alsfeld — Graph

°F

Alsfeld temperature yesterday

Maximum temperature yesterday: 50 °F (at 4:00 PM)
Minimum temperature yesterday: 33 °F (at 1:00 AM)
Average temperature yesterday: 41 °F

Past Weeks' High & Low Weather Summary

 TemperatureHumidityPressure
High50 °F (Mar 1, 4:00 PM)97% (Feb 18, 6:00 AM)30.78 "Hg (Feb 18, 6:00 AM)
Low21 °F (Feb 16, 7:00 AM)42% (Mar 2, 3:00 PM)29.41 "Hg (Feb 21, 7:00 AM)
Average37 °F81%29.98 "Hg
* Reported Feb 15 3:00 PM — Mar 2 3:00 PM, Alsfeld, Weather by CustomWeather, © 2015

Note: Actual official high and low records may vary slightly from our data, if they occured in-between our weather recording intervals... More about our weather records

Advertising

Alsfeld weather history for previous 24 hours

 ConditionsComfort  
Time TempWeatherWind HumidityBarometerVisibility
3:00 PM
Mon, Mar 2
47 °FScattered clouds.9 mph42%29.70 "Hg25 mi
2:00 PM47 °FScattered clouds.10 mph44%29.69 "Hg25 mi
1:00 PM46 °FPassing clouds.9 mph46%29.67 "Hg25 mi
12:00 PM45 °FPassing clouds.8 mph50%29.67 "Hg31 mi
11:00 AM43 °FPassing clouds.9 mph52%29.65 "Hg31 mi
10:00 AM40 °FPassing clouds.9 mph59%29.64 "Hg28 mi
9:00 AM40 °FPassing clouds.6 mph65%29.61 "Hg25 mi
8:00 AM39 °FScattered clouds.7 mph68%29.59 "Hg25 mi
7:00 AM39 °FPassing clouds.7 mph69%29.57 "Hg22 mi
6:00 AM40 °FPassing clouds.7 mph73%29.55 "Hg22 mi
5:00 AM42 °FPassing clouds.5 mph78%29.50 "Hg19 mi
3:00 AM44 °FLight rain. Overcast.5 mph85%29.44 "Hg9 mi
2:00 AM44 °FPassing clouds.5 mph85%29.47 "Hg12 mi
1:00 AM42 °FOvercast.3 mph85%29.50 "Hg9 mi
12:00 AM44 °FOvercast.7 mph80%29.57 "Hg16 mi
11:00 PM
Sun, Mar 1
43 °FOvercast.6 mph82%29.60 "Hg19 mi
9:00 PM43 °FOvercast.5 mph75%29.65 "Hg22 mi
8:00 PM43 °FPassing clouds.6 mph71%29.67 "Hg19 mi
7:00 PM45 °FPassing clouds.6 mph66%29.66 "Hg16 mi
6:00 PM46 °FOvercast.6 mph70%29.65 "Hg9 mi
5:00 PM49 °FOvercast.5 mph59%29.62 "Hg19 mi
4:00 PM50 °FOvercast.6 mph59%29.63 "Hg16 mi
Weather by CustomWeather, © 2015

See weather overviewHow to use our weather pages